View from above orbital plane
|
View from above satellite
|
Ground track
|
The orbit data is extracted from the following two-line orbital elements,
1 17291U 87001B 21111.66887019 .00000012 00000-0 -26886-5 0 9996
2 17291 82.4690 172.9567 0012502 69.2156 291.0343 13.84585416732770
Epoch (UTC): | 21 April 2021 16:03:10 |
Eccentricity: | 0.0012502 |
inclination: | 82.4690° |
perigee height: | 938 km |
apogee height: | 957 km |
right ascension of ascending node: | 172.9567° |
argument of perigee: | 69.2156° |
revolutions per day: | 13.84585416 |
mean anomaly at epoch: | 291.0343° |
orbit number at epoch: | 73277 |
The dashed part of the orbit path shows where the satellite is in the earth's shadow,
|
|